Flag Weather past 2 weeks in Carson City, Nevada, U.S.A.

Now
66 °F

Broken clouds.


Feels Like: 66 °F
Forecast: 39 / 65 °F
Wind: No wind

Location: Reno Tahoe International Airport

Current Time: Nov 26, 2014 at 4:33:53 PM

Latest Report: Nov 26, 2014 at 3:55 PM


Visibility: 10 mi

Pressure: 30.25 "Hg

Humidity: 25%

Dew point: 29 °F

Location of Carson CityLocation

Historic Weather in Carson City — Graph

°F

Carson City temperature yesterday

Maximum temperature yesterday: 62 °F (at 2:55 PM)
Minimum temperature yesterday: 26 °F (at 5:55 AM)
Average temperature yesterday: 42 °F

Past Weeks' High & Low Weather Summary

 TemperatureHumidityPressure
High67 °F (Nov 26, 2:55 PM)97% (Nov 20, 11:55 PM)30.58 "Hg (Nov 20, 11:55 PM)
Low20 °F (Nov 17, 3:55 AM)20% (Nov 24, 3:55 PM)29.84 "Hg (Nov 22, 3:55 AM)
Average41 °F55%30.18 "Hg
* Reported Nov 11 2:55 PM — Nov 26 2:55 PM, Carson City, Weather by CustomWeather, © 2014

Note: Actual official high and low records may vary slightly from our data, if they occured in-between our weather recording intervals... More about our weather records

Advertising

Carson City weather history for previous 24 hours

 ConditionsComfort  
Time TempWeatherWind HumidityBarometerVisibility
2:55 PM
Nov 26
67 °FMore clouds than sun.3 mph21%30.25 "Hg10 mi
1:55 PM65 °FPartly sunny.No wind24%30.27 "Hg10 mi
12:55 PM61 °FBroken clouds.No wind27%30.30 "Hg10 mi
11:55 AM58 °FScattered clouds.No wind31%30.34 "Hg10 mi
10:55 AM50 °FPassing clouds.No wind41%30.40 "Hg10 mi
9:55 AM45 °FPassing clouds.No wind49%30.43 "Hg10 mi
8:55 AM39 °FScattered clouds.No wind60%30.46 "Hg10 mi
7:55 AM31 °FScattered clouds.No wind76%30.46 "Hg10 mi
6:55 AM29 °FPassing clouds.No wind79%30.45 "Hg10 mi
5:55 AM30 °FClear.No wind75%30.43 "Hg10 mi
4:55 AM30 °FClear.No wind75%30.42 "Hg10 mi
3:55 AM31 °FClear.No wind76%30.40 "Hg10 mi
2:55 AM33 °FClear.No wind70%30.40 "Hg10 mi
1:55 AM32 °FClear.No wind73%30.41 "Hg10 mi
12:55 AM34 °FClear.3 mph70%30.42 "Hg10 mi
11:55 PM
Nov 25
35 °FClear.No wind67%30.43 "Hg10 mi
10:55 PM39 °FClear.No wind60%30.45 "Hg10 mi
9:55 PM40 °FClear.No wind55%30.46 "Hg10 mi
8:55 PM40 °FPassing clouds.3 mph58%30.47 "Hg10 mi
7:55 PM45 °FPassing clouds.No wind48%30.46 "Hg10 mi
6:55 PM48 °FPassing clouds.No wind43%30.44 "Hg10 mi
5:55 PM51 °FPassing clouds.3 mph38%30.44 "Hg10 mi
4:55 PM57 °FPassing clouds.No wind28%30.41 "Hg10 mi
Weather by CustomWeather, © 2014

See weather overviewHow to use our weather pages